Погода в Родионово-Несветайской

Россия / Ростовская область     47°36′54″N   39°42′22″E
темп.,
°C
ветер,
м/с
пор.,
м/с
влажн.,
%
обл.,
%
осадки,
мм/ч
давл.,
гПа
погр.,
м
9 мая, вс
вс900:00+15зюз3590100 0.9 100892
03:00+12ссз81289100 1.0 1009564
06:00+8ссз81390100 2.0 1011686
09:00+7ссз71287100 3.8 1014759
12:00+10ссз71172100 0.7 10151296
15:00+12ссз71055100 0.7 10161919
18:00+11с4761100 0.1 1019908
21:00+9с3664100 0.1 1021336
10 мая, пн
пн1000:00+7зсз4677100 0.1 1021120
03:00+6зсз51174100 0.1 1022340
06:00+7сз51175100 0.0 1022583
09:00+9сз71166100 0.1 10201364
12:00+7ссз71185100 2.2 10201109
15:00+8сз61286100 5.1 10181222
18:00+7зсз81393100 3.9 10161103
21:00+8зсз51096100 13.3 1012622
11 мая, вт
вт1100:00+8зюз5897100 7.3 1008435
03:00+8всв4898100 7.8 1008526
06:00+7св81296100 0.1 1010591
09:00+7св81293100 0.1 1011848
12:00+5всв101593100 0.6 1011927
15:00+7ююв8139396 1.1 1012790
18:00+9юв71192100 0.5 1016688
21:00+9юв71194100 1.0 1018809
12 мая, ср
ср1200:00+8ю71491100 1.7 1019798
03:00+7вюв4798100 5.8 1019354
06:00+8в3496100 1.6 1019168
09:00+11в588097 1.6 1019552
12:00+17вюв8106169 0.0 10181512
15:00+18юв795853 0.0 10171689
18:00+17вюв6971100 0.0 1017577
21:00+13в48825 0.0 1016140
13 мая, чт
чт1300:00+11в36875 0.0 1016112
03:00+10в378433 0.0 1016137
06:00+10в388410 0.0 1016181
09:00+16вюв696677 0.0 1016455
12:00+21вюв78605 0.0 1015869
15:00+23вюв7858100 0.0 1015960
18:00+20вюв61173100 0.0 1015559
21:00+16в410895 0.0 1015174